User: anonymous   Login
Location: Parc des �les de St-Timoth�e
(45.2924°N, 74.0481°W)
Time: 17:20:23
(UTC-04:00)
Language:

Cosmos 2173 Rocket - Orbit

View from above orbital plane
View from above orbital plane
View from above satellite
View from above satellite

Ground track
Ground track

The orbit data is extracted from the following two-line orbital elements,

1 21797U 91081B   14295.96134311  .00000195  00000-0  18114-3 0  5487
2 21797 082.9558 061.1567 0036732 280.7654 209.9324 13.77295121151110
Epoch (UTC): 22 October 2014 23:04:20
Eccentricity: 0.0036732
inclination: 82.9558°
perigee height: 946 km
apogee height: 1000 km
right ascension of ascending node: 61.1567°
argument of perigee: 280.7654°
revolutions per day: 13.77295121
mean anomaly at epoch: 209.9324°
orbit number at epoch: 15111

The dashed part of the orbit path shows where the satellite is in the earth's shadow,  

DLR